TimeCDT,TemperatureF,Dew PointF,Humidity,Sea Level PressureIn,VisibilityMPH,Wind Direction,Wind SpeedMPH,Gust SpeedMPH,PrecipitationIn,Events,Conditions,WindDirDegrees,DateUTC
12:53 AM,21.9,16.0,78,30.33,10.0,Calm,Calm,-,N/A,,Clear,0,2013-03-29 05:53:00
1:53 AM,19.9,15.1,81,30.33,10.0,Calm,Calm,-,N/A,,Clear,0,2013-03-29 06:53:00
2:53 AM,19.0,15.1,85,30.33,10.0,Calm,Calm,-,N/A,,Clear,0,2013-03-29 07:53:00
3:53 AM,18.0,12.9,81,30.33,10.0,Calm,Calm,-,N/A,,Clear,0,2013-03-29 08:53:00
4:53 AM,16.0,10.9,81,30.33,10.0,Calm,Calm,-,N/A,,Clear,0,2013-03-29 09:53:00
5:53 AM,16.0,10.9,81,30.34,10.0,Calm,Calm,-,N/A,,Clear,0,2013-03-29 10:53:00
6:53 AM,14.0,10.0,84,30.34,10.0,Calm,Calm,-,N/A,,Clear,0,2013-03-29 11:53:00
7:53 AM,18.0,14.0,84,30.35,10.0,Calm,Calm,-,N/A,,Partly Cloudy,0,2013-03-29 12:53:00
8:53 AM,28.0,19.9,72,30.33,10.0,Calm,Calm,-,N/A,,Mostly Cloudy,0,2013-03-29 13:53:00
9:53 AM,39.0,19.0,45,30.32,10.0,South,4.6,-,N/A,,Clear,190,2013-03-29 14:53:00
10:53 AM,41.0,18.0,40,30.31,10.0,South,9.2,-,N/A,,Overcast,180,2013-03-29 15:53:00
11:53 AM,43.0,18.0,37,30.30,10.0,SSW,8.1,-,N/A,,Overcast,210,2013-03-29 16:53:00
12:53 PM,45.0,18.0,34,30.28,10.0,Variable,6.9,-,N/A,,Overcast,0,2013-03-29 17:53:00
1:53 PM,46.0,17.1,31,30.27,10.0,South,11.5,-,N/A,,Mostly Cloudy,180,2013-03-29 18:53:00
2:53 PM,46.9,19.0,33,30.25,10.0,South,6.9,-,N/A,,Scattered Clouds,180,2013-03-29 19:53:00
3:53 PM,46.9,21.0,36,30.23,10.0,Variable,4.6,-,N/A,,Mostly Cloudy,0,2013-03-29 20:53:00
4:53 PM,46.9,25.0,42,30.21,10.0,SSW,4.6,-,N/A,,Mostly Cloudy,210,2013-03-29 21:53:00
5:53 PM,46.0,26.1,46,30.21,10.0,South,5.8,-,N/A,,Partly Cloudy,180,2013-03-29 22:53:00
6:53 PM,45.0,25.0,46,30.20,10.0,SSW,4.6,-,N/A,,Scattered Clouds,200,2013-03-29 23:53:00
7:53 PM,43.0,27.0,53,30.19,10.0,Calm,Calm,-,N/A,,Overcast,0,2013-03-30 00:53:00
8:53 PM,35.1,25.0,67,30.18,10.0,Calm,Calm,-,N/A,,Partly Cloudy,0,2013-03-30 01:53:00
9:53 PM,32.0,26.1,79,30.17,10.0,Calm,Calm,-,N/A,,Clear,0,2013-03-30 02:53:00
10:53 PM,37.9,26.1,62,30.15,10.0,SSW,3.5,-,N/A,,Mostly Cloudy,200,2013-03-30 03:53:00
11:53 PM,37.9,25.0,60,30.12,10.0,South,3.5,-,N/A,,Overcast,180,2013-03-30 04:53:00